Terug naar catalogus

TRYAD 2

ActiefWetenschapSSO
NORAD 66761·PAYLOAD·🇯🇵 Japan
Deze satellietnaam is nog niet bevestigd door officiële bronnen.

Gelanceerd Nov 28, 2025 vanaf Vandenberg Space Force Base

Loading…

Volgende Passages (komende 24 uur)

TLE

VersSource: Space-Track

Epoch: Sep 13, 2026, 22:33 UTC

1 66761U 25276CZ  26256.93969488  .00007728  00000-0  32575-3 0  9994
2 66761  97.4110 329.8573 0001173  62.5718 297.5638 15.23601084 43960

Volg TRYAD 2 in realtime met AllMySat

Download on the App Store